| time (UTC) | temp F | wind direction | speed knots | gust knots | rain 1hr in | rain 24hr in | rain mn in | humidity % | barometer mb |
| 20260906180213 | 91 | 222 | 0.0 | 0.0 | 0.00 | 0.44 | 0.00 | 70 | 1011.0 |
| 20260906173214 | 90 | 135 | 0.0 | 0.0 | 0.00 | 0.44 | 0.00 | 73 | 1011.4 |
| 20260906170213 | 93 | 105 | 0.0 | 1.7 | 0.00 | 0.44 | 0.00 | 64 | 1011.8 |
| 20260906160213 | 92 | 272 | 0.0 | 0.0 | 0.00 | 0.44 | 0.00 | 71 | 1011.9 |
| 20260906153213 | 89 | 139 | 0.0 | 0.0 | 0.00 | 0.44 | 0.00 | 75 | 1012.0 |
| 20260906150213 | 87 | 131 | 0.0 | 1.7 | 0.00 | 0.44 | 0.00 | 76 | 1012.1 |
| 20260906143212 | 88 | 169 | 0.0 | 0.0 | 0.00 | 0.44 | 0.00 | 77 | 1012.1 |
| 20260906123212 | 75 | 198 | 0.0 | 0.0 | 0.00 | 0.44 | 0.00 | 95 | 1012.3 |
| 20260906120212 | 74 | 198 | 0.0 | 0.0 | 0.00 | 0.44 | 0.00 | 95 | 1011.8 |
| 20260906113212 | 74 | 198 | 0.0 | 0.0 | 0.00 | 0.45 | 0.00 | 95 | 1011.5 |
| 20260906110211 | 74 | 198 | 0.0 | 0.0 | 0.00 | 0.45 | 0.00 | 95 | 1011.3 |
| 20260906103211 | 74 | 198 | 0.0 | 0.0 | 0.00 | 0.45 | 0.00 | 95 | 1011.1 |
| 20260906100211 | 74 | 198 | 0.0 | 0.0 | 0.00 | 0.45 | 0.00 | 95 | 1010.9 |
| 20260906093211 | 75 | 198 | 0.0 | 0.0 | 0.00 | 0.45 | 0.00 | 94 | 1010.8 |
| 20260906090211 | 75 | 198 | 0.0 | 0.0 | 0.00 | 0.45 | 0.00 | 95 | 1010.6 |
| 20260906083211 | 75 | 198 | 0.0 | 0.0 | 0.00 | 0.45 | 0.00 | 94 | 1010.6 |
| 20260906080211 | 75 | 198 | 0.0 | 0.0 | 0.00 | 0.45 | 0.00 | 95 | 1010.4 |
| 20260906073211 | 75 | 198 | 0.0 | 0.0 | 0.00 | 0.45 | 0.00 | 95 | 1010.3 |
| 20260906070210 | 76 | 198 | 0.0 | 0.0 | 0.00 | 0.45 | 0.00 | 95 | 1010.6 |
| 20260906063210 | 76 | 198 | 0.0 | 0.0 | 0.00 | 0.45 | 0.00 | 95 | 1010.3 |
| 20260906060210 | 76 | 198 | 0.0 | 0.0 | 0.00 | 0.45 | 0.00 | 95 | 1010.8 |
| 20260906053210 | 76 | 198 | 0.0 | 0.0 | 0.00 | 0.45 | 0.00 | 95 | 1010.8 |
| 20260906050210 | 76 | 198 | 0.0 | 0.0 | 0.00 | 0.45 | 0.00 | 95 | 1011.2 |
| 20260906033209 | 77 | 198 | 0.0 | 0.0 | 0.00 | 0.45 | 0.45 | 95 | 1011.6 |
| 20260906030210 | 78 | 198 | 0.0 | 0.0 | 0.00 | 0.45 | 0.45 | 94 | 1011.7 |
| 20260906023209 | 79 | 198 | 0.0 | 0.0 | 0.00 | 0.45 | 0.45 | 93 | 1011.5 |
| 20260906020210 | 79 | 198 | 0.0 | 0.0 | 0.00 | 0.45 | 0.45 | 92 | 1011.2 |
| 20260906013209 | 80 | 198 | 0.0 | 0.0 | 0.00 | 0.45 | 0.45 | 91 | 1010.5 |
| 20260906010209 | 81 | 146 | 0.0 | 0.0 | 0.00 | 0.45 | 0.45 | 89 | 1010.3 |
| 20260906003210 | 82 | 237 | 0.0 | 0.0 | 0.00 | 0.45 | 0.45 | 88 | 1010.3 |
| 20260906000212 | 83 | 169 | 0.0 | 0.0 | 0.00 | 0.45 | 0.45 | 87 | 1010.2 |
| 20260905233209 | 84 | 120 | 0.0 | 0.0 | 0.00 | 0.45 | 0.45 | 85 | 1010.3 |
| 20260905223208 | 87 | 123 | 0.0 | 0.0 | 0.00 | 0.45 | 0.45 | 79 | 1010.7 |
| 20260905220209 | 89 | 223 | 0.0 | 0.0 | 0.00 | 0.45 | 0.45 | 73 | 1010.5 |
| 20260905210208 | 88 | 200 | 1.7 | 2.6 | 0.00 | 0.45 | 0.45 | 76 | 1010.9 |
| 20260905203208 | 89 | 184 | 2.6 | 2.6 | 0.00 | 0.45 | 0.45 | 76 | 1010.8 |
| 20260905200208 | 87 | 153 | 0.0 | 1.7 | 0.44 | 0.45 | 0.45 | 88 | 1011.1 |
| 20260905193208 | 81 | 347 | 0.0 | 0.0 | 0.44 | 0.45 | 0.45 | 95 | 1011.6 |
| 20260905190208 | 83 | 147 | 0.0 | 0.0 | 0.00 | 0.01 | 0.01 | 81 | 1012.4 |
| 20260905183208 | 86 | 237 | 1.7 | 4.3 | 0.00 | 0.01 | 0.01 | 76 | 1012.3 |